This demonstration page uses our WeatherBlox Daily Observations layout. Learn more.

41.55636, -103.73856

Hourly Observations for November 9, 2015

Temp ( °F °C ) Dew Point ( °F °C ) Humidity (%) Winds ( mph kmh ) Pressure ( in mb ) Visibility ( mi km ) Precip ( " mm )
12:53 am 00:53 Clear 27 -2.8 23 -5 85 85 NNW 6 9 29.95 1014 10 16.0934 0 0
1:53 am 01:53 Clear 28 -2.2 23 -5 81 81 NW 6 9 29.93 1014 10 16.0934 0 0
2:53 am 02:53 Clear 28 -2.2 22 -5.6 78 78 NW 6 9 29.93 1014 10 16.0934 0 0
3:53 am 03:53 Clear 29 -1.7 22 -5.6 75 75 NNW 8 13 29.93 1014 10 16.0934 0 0
4:53 am 04:53 Clear 24 -4.4 21 -6.1 88 88 NW 6 9 29.98 1015 10 16.0934 0 0
5:53 am 05:53 Clear 25 -3.9 20 -6.7 81 81 NNE 3 6 29.99 1016 10 16.0934 0 0
6:53 am 06:53 Sunny 23 -5 19 -7.2 85 85 Calm 30.01 1016 10 16.0934 0 0
7:53 am 07:53 Sunny 32 0 26 -3.3 79 79 S 3 6 29.99 1016 10 16.0934 0 0
8:53 am 08:53 Sunny 35 1.7 27 -2.8 72 72 E 3 6 30 1016 10 16.0934 0 0
9:53 am 09:53 Sunny 43 6.1 28 -2.2 56 56 VRB 3 6 29.97 1015 10 16.0934 0 0
10:53 am 10:53 Sunny 48 8.9 29 -1.7 48 48 SE 6 9 29.94 1014 10 16.0934 0 0
11:53 am 11:53 Sunny 53 11.7 25 -3.9 34 34 ESE 8 13 29.9 1012 10 16.0934 0 0
12:53 pm 12:53 Sunny 57 13.9 28 -2.2 33 33 SE 10 17 29.86 1011 10 16.0934 0 0
1:53 pm 13:53 Sunny 60 15.6 28 -2.2 30 30 ESE 10 17 29.83 1010 10 16.0934 0 0
2:53 pm 14:53 Sunny 60 15.6 27 -2.8 28 28 ESE 14 22 29.81 1010 10 16.0934 0 0
3:53 pm 15:53 Sunny 58 14.4 27 -2.8 31 31 SE 10 17 29.81 1009 10 16.0934 0 0
4:53 pm 16:53 Clear 46 7.8 28 -2.2 50 50 ESE 8 13 29.86 1011 10 16.0934 0 0
5:53 pm 17:53 Clear 42 5.6 28 -2.2 58 58 E 10 17 29.87 1012 10 16.0934 0 0
6:53 pm 18:53 Clear 39 3.9 27 -2.8 62 62 E 9 15 29.89 1012 10 16.0934 0 0
7:53 pm 19:53 Clear 38 3.3 28 -2.2 68 68 E 10 17 29.87 1011 10 16.0934 0 0
8:53 pm 20:53 Clear 36 2.2 29 -1.7 76 76 E 10 17 29.87 1012 10 16.0934 0 0
9:53 pm 21:53 Clear 34 1.1 29 -1.7 82 82 E 6 9 29.85 1011 10 16.0934 0 0
10:53 pm 22:53 Clear 34 1.1 29 -1.7 82 82 E 6 9 29.84 1010 10 16.0934 0 0
11:53 pm 23:53 Clear 31 -0.6 27 -2.8 85 85 NNE 5 7 29.83 1010 10 16.0934 0 0

Powered by AerisWeather